Wind_Speed
8 7 6 6 5 5 5 4 3 2 2 2 1 0 2 2 3 4 4 4 5 6 6 5 5 6 6 6 6 6 6 5 5 5 4 4 4 5 5 5 5 5 5 5 6 6 6 6 6
9 8 8 7 7 6 8 5 4 4 3 3 3 3 4 4 5 5 6 6 6 7 7 7 6 7 7 8 8 8 7 7 6 6 6 6 6 6 6 6 6 6 6 6 6 6 6 6 6
10 9 8 8 8 9 9 7 6 5 5 5 4 5 6 7 7 7 7 7 8 7 7 7 7 8 9 9 9 9 8 8 7 7 7 7 7 7 7 7 7 7 7 7 7 7 7 7 7
11 10 10 10 11 10 9 8 7 8 7 6 7 7 8 9 8 8 8 8 9 8 8 8 8 9 10 10 10 10 9 9 9 8 9 9 9 8 8 8 8 8 8 8 8 8 8 8 8
12 11 11 12 12 12 10 9 9 9 9 9 9 10 10 11 9 9 10 10 9 10 9 9 9 10 10 11 11 11 11 11 10 10 10 10 10 10 9 9 9 9 9 9 9 9 9 9 9
12 12 12 13 14 13 12 11 11 11 11 11 11 12 12 12 12 12 12 11 11 11 11 11 11 11 11 12 12 12 12 12 12 12 12 11 11 11 11 11 11 11 11 11 11 11 11 11 10
13 13 14 15 15 15 14 13 13 14 14 13 14 14 13 13 14 14 13 13 13 12 13 13 13 13 13 14 14 14 13 12 12 12 12 12 12 12 12 12 12 12 12 12 12 12 12 13 12
14 14 15 16 17 17 16 15 15 15 16 15 15 15 15 15 15 15 15 14 14 14 14 14 14 14 14 15 15 15 15 14 13 13 13 13 13 13 13 13 13 13 13 14 14 14 13 14 14
15 15 17 18 18 19 18 18 17 17 17 17 17 16 16 16 16 15 15 15 14 14 14 15 15 15 16 16 16 16 16 15 15 14 14 14 14 14 14 14 14 15 15 15 15 15 15 15 15
15 16 19 19 19 19 19 19 19 19 19 18 17 17 17 17 17 16 16 15 15 16 16 15 15 16 17 17 17 17 17 17 16 15 15 15 16 15 15 15 16 17 17 17 17 17 17 17 16
16 17 18 19 19 19 20 21 20 20 20 18 18 18 19 19 19 18 17 17 16 16 16 17 18 18 19 19 20 19 19 18 18 17 17 17 17 17 17 16 17 18 18 19 19 19 19 18 18
16 17 18 19 19 19 20 21 21 21 21 20 20 20 20 20 20 20 20 19 18 18 17 18 19 21 21 21 21 21 20 20 19 19 18 18 18 18 18 18 18 19 19 20 20 20 21 21 20
17 18 18 19 19 19 20 21 21 21 21 21 21 21 21 22 21 21 21 20 20 19 19 19 20 21 22 22 23 22 22 21 21 21 20 20 20 20 20 20 20 20 21 21 21 21 22 22 21
17 18 19 19 20 20 21 22 22 23 23 22 22 22 23 22 21 21 21 21 21 21 21 21 22 22 23 23 23 23 23 22 22 22 22 21 21 21 21 21 21 21 21 22 21 21 22 22 22
18 18 20 21 21 21 21 22 23 23 24 24 23 23 23 22 21 22 22 21 21 21 22 23 23 24 24 24 24 24 24 23 23 23 23 22 22 21 21 22 22 23 23 23 22 22 23 23 24
18 19 20 22 22 22 22 22 23 24 24 24 24 23 23 23 22 23 22 22 22 22 23 24 24 24 24 24 24 26 26 25 24 24 23 23 22 23 23 23 24 24 24 24 24 24 24 24 25
18 19 20 23 23 24 23 22 24 24 24 24 24 24 24 24 23 23 23 23 23 24 25 25 25 25 25 26 26 27 26 25 25 24 23 23 23 24 24 25 25 24 25 24 25 25 25 25 26
19 19 21 23 24 24 24 24 24 25 26 26 25 25 25 25 24 24 24 24 24 25 25 25 24 25 26 27 26 25 25 25 24 23 24 24 24 25 25 25 25 25 25 26 26 26 26 26 26
19 19 20 22 23 23 24 25 25 26 26 26 26 26 26 26 26 25 25 25 25 25 26 25 25 25 26 26 26 25 24 23 23 24 24 24 25 25 25 25 26 26 26 27 27 26 27 27 27
17 18 19 21 22 23 24 25 25 26 25 25 25 26 26 26 26 26 26 26 25 25 25 26 25 25 25 25 25 24 24 23 23 24 24 24 24 24 25 26 26 25 26 27 27 27 27 27 27
17 17 18 20 21 22 23 23 24 25 25 25 25 25 26 26 27 26 26 26 26 26 26 25 26 25 25 25 26 24 23 24 24 24 24 25 25 25 26 26 27 26 26 27 27 27 28 27 27
17 18 19 20 20 21 22 22 22 24 25 25 25 25 24 25 25 25 25 25 26 26 26 25 24 25 25 26 24 24 25 26 25 25 25 25 26 26 26 27 27 27 27 26 27 28 28 27 27
17 18 18 19 20 21 22 23 23 25 24 24 24 24 24 24 24 24 25 26 26 26 26 26 25 25 25 25 25 25 26 26 26 26 26 26 27 27 27 28 27 27 27 27 28 28 27 26 26
17 17 18 19 19 20 21 22 22 23 23 24 24 24 24 24 24 25 25 26 26 27 26 25 25 25 25 25 27 27 27 27 27 27 27 28 28 28 28 28 27 28 28 28 27 27 27 27 27
16 17 17 18 18 19 21 21 21 23 23 23 24 24 24 25 25 24 25 26 26 27 26 26 26 26 26 26 26 27 28 28 28 27 27 28 29 29 28 28 28 27 27 26 27 26 26 27 27
16 17 17 18 17 18 20 21 21 22 22 22 22 23 24 24 23 23 24 25 24 25 25 25 26 27 26 26 26 27 28 28 27 28 28 29 28 28 28 28 28 28 28 27 26 26 26 26 27
18 18 18 19 20 20 19 21 22 21 21 21 21 22 22 22 21 22 22 23 23 24 25 25 26 27 27 27 27 28 28 27 27 28 28 28 28 28 29 29 29 28 28 27 27 26 26 26 26
18 18 19 18 19 19 19 20 20 20 19 19 19 20 21 20 21 21 22 23 24 25 26 27 26 27 27 27 27 27 27 27 26 26 27 28 28 28 29 28 28 27 27 26 26 26 26 26 26
19 18 18 18 18 18 19 19 20 20 19 18 19 19 19 20 21 21 22 23 24 25 26 26 26 27 27 27 27 27 26 27 27 27 27 27 27 27 27 27 27 27 26 26 25 25 25 25 25
19 19 18 18 19 19 19 20 20 19 19 18 19 18 18 18 19 20 21 22 23 24 25 26 27 27 28 28 28 28 27 27 26 26 26 26 26 26 26 26 26 25 25 25 24 24 24 24 23
Wind_Direction
206 209 213 215 216 219 221 220 212 203 192 199 198 287 335 321 315 303 305 299 298 305 303 292 286 280 277 279 283 286 290 292 293 297 301 308 315 323 328 328 330 330 329 326 330 331 329 329 333
214 216 218 218 216 221 234 236 232 229 225 236 249 277 298 300 302 298 297 298 298 297 297 292 287 283 282 285 287 286 287 289 290 293 298 302 305 308 311 312 312 311 312 308 312 314 314 316 319
217 219 221 222 221 217 236 242 243 242 242 248 261 274 290 295 298 302 299 300 300 296 292 294 289 285 284 286 287 284 284 285 286 288 294 297 299 300 300 300 302 300 299 298 301 304 303 303 307
222 224 227 229 231 234 243 250 252 255 256 260 270 276 290 296 301 304 300 300 299 296 295 291 288 287 283 284 286 284 284 284 284 287 291 293 293 294 294 295 296 293 290 290 292 294 295 297 298
226 229 232 236 240 244 248 254 257 262 265 272 277 282 292 297 300 301 299 298 297 296 295 292 286 285 284 284 284 284 284 284 285 286 288 290 292 292 291 293 293 290 287 287 289 287 285 288 290
228 231 235 239 245 249 251 255 258 261 269 275 280 285 289 296 301 300 298 298 294 292 291 289 285 284 284 285 283 282 282 283 283 285 286 287 289 290 289 290 290 287 283 284 285 284 282 281 281
233 234 236 242 248 251 254 257 260 264 268 274 281 284 290 295 299 299 298 295 289 287 287 285 282 282 283 283 282 282 281 281 283 285 285 286 287 287 286 286 286 286 284 283 282 283 282 279 277
239 241 244 246 249 254 257 259 262 267 269 275 279 282 289 293 294 296 296 293 288 286 285 282 281 281 281 281 282 282 281 281 282 284 283 283 285 285 285 286 285 284 284 282 281 281 281 279 276
242 243 246 249 251 256 260 262 265 269 272 274 277 282 286 289 291 292 291 289 287 285 283 278 278 279 279 282 283 283 281 279 281 284 285 283 284 284 286 287 286 285 283 282 281 280 279 279 276
244 245 249 253 256 259 261 263 266 270 273 274 279 283 285 288 289 289 288 287 285 283 278 275 276 277 276 279 281 281 280 279 280 283 285 283 281 283 286 287 286 284 283 280 280 279 278 276 273
248 250 255 256 258 260 262 265 267 269 272 275 279 283 285 287 287 286 286 285 284 282 276 274 274 276 276 275 276 277 278 278 278 279 281 282 281 282 285 286 288 287 285 281 278 277 276 275 273
252 255 257 259 261 261 263 266 268 269 270 274 277 281 285 286 288 287 285 282 280 280 276 274 274 274 274 273 272 273 274 275 275 275 278 280 281 281 283 286 287 289 287 284 281 278 275 274 273
254 255 259 261 264 265 267 268 269 269 270 273 278 281 286 287 289 288 285 282 279 279 279 277 278 277 276 273 271 271 271 271 271 272 275 276 279 282 284 285 285 287 286 284 282 279 277 275 274
258 259 261 263 265 266 269 270 270 270 271 275 277 280 283 286 288 288 285 283 282 280 280 280 280 278 275 272 270 269 267 267 269 273 275 276 279 281 282 283 285 286 285 284 280 279 277 276 274
260 261 262 263 265 267 268 271 271 271 272 274 277 279 282 285 287 287 286 284 281 280 280 280 280 278 274 270 267 268 266 265 266 269 272 273 275 278 280 280 281 283 283 282 280 279 278 277 275
263 263 263 265 265 266 268 271 272 272 273 274 277 280 284 286 286 285 285 285 282 280 280 278 279 278 273 269 266 266 265 262 262 264 269 271 272 277 279 279 279 279 280 280 279 278 276 275 274
265 262 261 265 265 266 268 268 270 272 273 274 276 280 284 285 284 283 283 284 281 279 279 277 275 274 273 268 266 266 264 260 261 263 266 270 274 277 278 278 278 279 279 279 278 277 275 275 273
263 262 262 265 267 269 270 269 270 273 273 275 277 279 281 282 281 281 282 283 283 282 280 278 275 273 273 270 268 268 264 261 260 264 266 270 274 276 276 277 278 279 279 278 278 277 275 274 272
267 267 266 267 269 270 269 270 270 271 273 275 276 277 277 278 279 280 282 283 283 283 280 276 274 275 274 271 270 267 266 261 263 266 268 272 274 275 276 278 279 280 279 279 278 277 275 274 271
273 272 271 270 270 270 271 272 273 273 274 274 275 276 276 276 278 279 280 280 280 281 282 277 274 275 275 273 269 267 266 267 268 269 272 273 274 277 279 279 279 280 280 280 279 277 275 274 271
277 274 273 273 273 274 275 276 277 276 275 275 274 274 274 275 276 277 277 277 278 279 280 276 272 276 275 272 270 269 270 269 270 271 272 271 272 276 278 279 279 279 279 279 279 278 276 274 270
278 277 276 275 277 279 279 278 279 278 277 278 277 276 276 275 275 277 277 277 276 277 277 273 273 275 277 276 271 267 269 269 270 272 272 272 272 275 278 279 279 279 278 278 278 279 276 273 270
279 281 281 280 280 279 279 278 279 280 280 280 280 278 275 274 275 277 277 276 275 277 276 272 274 277 279 275 270 267 268 268 270 272 273 272 273 276 277 278 280 279 279 279 279 278 275 271 269
286 287 288 287 288 286 284 282 281 283 283 282 280 278 275 273 275 277 277 276 276 276 273 271 275 277 277 276 272 270 270 271 272 272 272 273 275 276 277 278 279 280 281 280 279 278 274 270 269
288 291 296 296 291 288 288 286 284 282 282 283 282 279 277 276 276 277 275 275 274 273 272 274 275 278 278 277 275 274 272 272 273 272 273 275 276 276 277 278 279 280 282 281 280 278 276 272 270
291 290 289 290 291 290 290 288 287 285 284 283 282 280 279 278 275 275 274 273 272 271 271 274 276 277 278 278 276 274 272 273 275 273 272 275 276 277 278 279 279 279 281 280 279 277 275 273 271
292 291 287 287 291 292 293 294 290 288 286 285 282 281 281 277 273 273 274 273 273 272 273 275 276 277 278 278 278 274 272 274 274 273 272 273 276 278 279 280 280 280 281 280 279 277 274 273 271
289 290 288 288 293 296 298 298 295 292 292 288 284 281 281 277 273 272 274 272 272 274 275 276 277 278 278 278 279 277 276 275 274 275 275 275 276 277 278 279 279 280 281 281 279 277 274 272 270
292 291 288 288 290 295 299 297 295 295 292 288 286 285 282 280 279 276 275 274 273 274 275 275 277 279 278 277 280 278 278 279 275 275 276 276 277 278 280 278 279 280 281 280 279 277 275 273 271
291 290 290 290 292 292 295 296 295 296 293 290 289 287 283 284 281 277 276 276 274 275 275 277 279 279 278 277 278 277 277 278 276 276 277 277 278 280 280 279 279 279 280 280 279 276 275 273 272
Height
5911 5912 5914 5916 5918 5920 5920 5921 5921 5921 5921 5921 5920 5920 5920 5920 5920 5922 5919 5916 5916 5915 5914 5914 5914 5914 5913 5913 5912 5912 5911 5910 5909 5909 5908 5908 5907 5907 5906 5906 5905 5905 5904 5904 5903 5903 5902 5902 5901
5910 5911 5913 5915 5917 5919 5919 5919 5920 5920 5920 5920 5919 5919 5919 5918 5918 5917 5916 5915 5914 5914 5913 5912 5912 5912 5912 5911 5911 5910 5909 5909 5908 5908 5907 5906 5906 5905 5905 5905 5904 5904 5903 5902 5902 5901 5901 5901 5900
5909 5910 5913 5914 5916 5918 5918 5918 5918 5918 5919 5918 5918 5918 5918 5917 5916 5915 5914 5913 5913 5912 5911 5911 5911 5911 5910 5910 5909 5908 5908 5907 5907 5906 5906 5905 5905 5904 5904 5903 5903 5902 5902 5901 5900 5900 5899 5899 5899
5907 5909 5912 5914 5914 5915 5915 5916 5917 5917 5917 5917 5917 5917 5916 5915 5914 5914 5912 5911 5911 5910 5909 5909 5909 5908 5908 5907 5907 5906 5906 5905 5905 5904 5904 5904 5903 5903 5902 5902 5901 5900 5900 5899 5899 5898 5898 5897 5897
5906 5908 5910 5911 5911 5912 5913 5914 5915 5915 5915 5915 5915 5914 5914 5913 5912 5911 5911 5910 5909 5908 5907 5907 5907 5906 5906 5905 5905 5904 5904 5903 5903 5902 5902 5902 5901 5901 5900 5900 5899 5898 5898 5897 5896 5896 5896 5895 5895
5905 5906 5908 5909 5909 5910 5911 5912 5913 5913 5913 5913 5913 5912 5911 5910 5910 5909 5908 5908 5907 5906 5905 5905 5904 5904 5904 5903 5903 5902 5901 5901 5901 5900 5900 5899 5899 5898 5898 5897 5897 5896 5895 5895 5894 5893 5893 5893 5892
5903 5904 5905 5906 5907 5907 5909 5910 5911 5911 5911 5911 5911 5910 5909 5908 5908 5907 5906 5905 5904 5904 5903 5902 5902 5901 5901 5900 5900 5899 5899 5898 5898 5897 5897 5896 5896 5896 5895 5894 5893 5893 5892 5892 5891 5891 5890 5890 5889
5900 5903 5902 5903 5904 5905 5906 5907 5908 5908 5908 5908 5908 5907 5907 5906 5905 5904 5903 5902 5902 5901 5901 5899 5899 5898 5898 5897 5897 5896 5896 5895 5895 5894 5894 5893 5893 5892 5891 5891 5890 5890 5889 5889 5888 5888 5887 5887 5886
5898 5901 5900 5901 5902 5902 5903 5904 5905 5905 5906 5905 5905 5905 5904 5903 5902 5901 5900 5900 5899 5899 5898 5896 5896 5895 5894 5894 5893 5893 5892 5892 5892 5891 5890 5890 5889 5888 5888 5887 5887 5886 5886 5885 5885 5884 5884 5883 5883
5896 5897 5897 5898 5899 5900 5900 5901 5902 5903 5902 5902 5902 5901 5901 5900 5899 5898 5897 5896 5896 5895 5894 5893 5893 5892 5891 5890 5889 5889 5889 5888 5888 5888 5887 5886 5885 5885 5884 5883 5882 5882 5882 5881 5881 5880 5880 5879 5879
5893 5894 5894 5895 5896 5897 5897 5898 5899 5899 5899 5899 5899 5898 5898 5897 5896 5895 5894 5893 5892 5891 5891 5890 5889 5888 5887 5886 5886 5885 5885 5885 5884 5884 5883 5882 5881 5881 5880 5879 5878 5877 5877 5876 5876 5875 5875 5875 5874
5890 5890 5891 5892 5893 5894 5894 5895 5895 5896 5896 5895 5895 5895 5894 5893 5892 5891 5890 5889 5888 5887 5886 5886 5885 5884 5883 5882 5881 5881 5881 5881 5880 5880 5879 5878 5877 5877 5876 5875 5874 5873 5872 5872 5871 5871 5870 5870 5869
5887 5888 5888 5888 5889 5890 5890 5891 5891 5892 5892 5891 5891 5890 5890 5888 5887 5886 5885 5884 5884 5883 5882 5881 5880 5879 5878 5877 5877 5876 5876 5876 5875 5875 5874 5874 5873 5873 5872 5871 5870 5869 5868 5867 5866 5866 5865 5865 5864
5885 5885 5885 5885 5886 5886 5887 5887 5887 5887 5887 5887 5887 5886 5885 5884 5883 5882 5881 5880 5879 5878 5877 5877 5876 5874 5873 5872 5871 5871 5871 5871 5870 5870 5869 5869 5868 5868 5867 5866 5865 5864 5863 5862 5861 5861 5860 5860 5859
5881 5882 5882 5881 5882 5882 5883 5884 5883 5883 5883 5883 5882 5882 5881 5880 5879 5878 5876 5875 5875 5874 5873 5872 5871 5869 5868 5867 5866 5866 5865 5865 5865 5865 5864 5864 5863 5863 5862 5862 5860 5859 5858 5858 5857 5856 5855 5854 5854
5878 5879 5879 5878 5878 5878 5881 5880 5878 5878 5878 5878 5878 5877 5876 5875 5874 5873 5872 5871 5870 5869 5868 5867 5866 5864 5863 5862 5861 5860 5859 5859 5859 5859 5859 5858 5858 5858 5857 5856 5855 5854 5853 5852 5851 5850 5850 5849 5849
5875 5876 5876 5874 5874 5874 5875 5875 5874 5873 5874 5873 5873 5872 5871 5870 5869 5868 5867 5866 5865 5864 5863 5861 5860 5859 5857 5856 5855 5854 5853 5853 5853 5852 5853 5853 5853 5852 5851 5851 5850 5848 5847 5846 5845 5844 5844 5843 5843
5872 5872 5871 5870 5869 5870 5870 5870 5869 5868 5868 5868 5868 5867 5866 5865 5864 5863 5862 5861 5860 5858 5857 5856 5854 5853 5852 5850 5850 5849 5848 5848 5847 5847 5847 5847 5847 5846 5845 5845 5844 5842 5842 5841 5839 5839 5838 5837 5837
5867 5867 5867 5866 5865 5865 5865 5864 5864 5863 5863 5862 5862 5862 5861 5860 5859 5858 5857 5855 5854 5852 5851 5849 5848 5847 5846 5845 5844 5843 5843 5842 5842 5841 5841 5841 5841 5840 5839 5839 5838 5836 5835 5834 5833 5832 5831 5831 5830
5863 5863 5863 5862 5860 5860 5860 5859 5858 5857 5857 5857 5856 5855 5855 5854 5853 5852 5851 5849 5848 5846 5845 5843 5841 5841 5840 5839 5838 5838 5837 5837 5837 5836 5835 5835 5835 5834 5833 5832 5831 5830 5829 5828 5827 5826 5825 5824 5824
5859 5858 5858 5857 5856 5855 5855 5854 5853 5852 5851 5851 5850 5849 5849 5847 5846 5845 5844 5843 5842 5840 5839 5837 5835 5835 5834 5833 5833 5833 5832 5832 5831 5830 5830 5829 5828 5828 5827 5826 5825 5824 5823 5822 5821 5819 5818 5817 5817
5855 5853 5853 5852 5852 5851 5851 5850 5849 5846 5845 5845 5844 5843 5842 5841 5840 5839 5838 5837 5836 5835 5833 5831 5829 5829 5828 5827 5827 5827 5826 5825 5825 5824 5823 5823 5822 5821 5820 5820 5818 5817 5816 5815 5814 5813 5811 5811 5810
5850 5849 5848 5847 5846 5846 5845 5845 5845 5841 5840 5839 5838 5837 5836 5835 5834 5833 5832 5831 5829 5828 5827 5826 5824 5823 5822 5821 5820 5820 5820 5819 5818 5817 5817 5816 5816 5815 5814 5813 5811 5810 5809 5808 5806 5805 5804 5803 5804
5845 5844 5843 5842 5842 5841 5840 5839 5838 5836 5834 5833 5832 5831 5829 5829 5828 5827 5826 5824 5823 5821 5820 5819 5818 5817 5816 5815 5814 5813 5813 5812 5811 5811 5810 5809 5809 5808 5807 5806 5804 5803 5802 5800 5799 5798 5797 5797 5797
5841 5841 5840 5839 5838 5838 5835 5833 5833 5829 5828 5827 5825 5824 5823 5822 5821 5820 5819 5817 5816 5815 5814 5813 5812 5811 5810 5809 5807 5807 5806 5805 5804 5803 5803 5802 5801 5800 5800 5798 5797 5796 5794 5793 5792 5790 5790 5789 5789
5837 5837 5837 5836 5835 5833 5829 5827 5826 5823 5822 5820 5819 5817 5816 5815 5814 5813 5812 5811 5810 5809 5808 5807 5806 5805 5804 5802 5801 5800 5799 5798 5797 5796 5795 5795 5794 5793 5792 5791 5789 5788 5787 5785 5784 5783 5782 5782 5782
5833 5832 5831 5829 5827 5826 5824 5822 5819 5817 5816 5814 5813 5811 5810 5809 5808 5807 5806 5805 5804 5803 5802 5801 5800 5798 5797 5796 5795 5793 5792 5790 5789 5789 5788 5787 5786 5785 5784 5783 5782 5780 5779 5778 5777 5776 5775 5775 5774
5829 5827 5825 5824 5822 5821 5820 5817 5815 5811 5810 5809 5807 5805 5804 5803 5802 5801 5799 5798 5797 5797 5796 5795 5793 5792 5791 5789 5788 5786 5785 5783 5782 5781 5780 5780 5779 5778 5776 5775 5774 5773 5772 5770 5769 5768 5767 5767 5767
5824 5822 5820 5819 5817 5816 5815 5815 5809 5807 5805 5803 5801 5800 5798 5797 5796 5795 5793 5792 5791 5790 5789 5788 5787 5785 5784 5782 5780 5779 5778 5776 5775 5774 5773 5772 5771 5770 5769 5768 5767 5766 5765 5763 5762 5761 5760 5760 5760
5818 5817 5815 5814 5813 5811 5809 5810 5804 5802 5800 5798 5796 5795 5793 5792 5790 5788 5787 5786 5785 5784 5783 5781 5780 5778 5776 5775 5773 5772 5771 5769 5768 5767 5766 5765 5764 5763 5762 5761 5760 5759 5758 5756 5755 5754 5753 5753 5753